{"data":{"norad_id":40086,"intl_designator":"2014-040A","name":"ORBCOMM FM109","alt_names":[],"object_type":"PAYLOAD","status":"ACTIVE","operator":null,"country":"ORB","launch_date":"2014-07-14","launch_site_code":"AFETR","launch_vehicle":null,"mission":null,"orbit_class":"UNKNOWN","rcs_meters":0.442,"size_class":null,"mass_kg":null,"dimensions":null,"purposes":["comms"],"wikipedia_slug":null,"has_3d_model":false,"image_url":null,"decayed_at":null,"tle_current":{"epoch":"2026-05-25T03:42:51.194880Z","epoch_age_seconds":61821,"freshness":"FRESH","line1":"1 40086U 14040A   26145.15475920  .00000188  00000+0  75934-4 0  9996","line2":"2 40086  47.0019 200.3808 0000916 162.6306 197.4611 14.58815408630981","mean_motion":14.58815408,"eccentricity":9.16e-5,"inclination_deg":47.0019,"raan_deg":200.3808,"arg_perigee_deg":162.6306,"mean_anomaly_deg":197.4611,"bstar":7.5934e-5,"rev_number":63098,"period_min":98.710226948741,"perigee_km":696.3534339089,"apogee_km":697.64959928514,"semimajor_km":7075.138516597,"source":"CELESTRAK","updated_at":"2026-05-25T13:38:22.864502Z"}}}